Satellite-Ground Cal/Val Site Overpasses Predictions

Prediction of Satellite NPP Overpassing Cal/Val Site: Antarctic Dome C

Ground Cal/Val Site Location: Latitude: -75.10, Longitude: 123.35; Satellite-Ground Site NADIR distance within 100 km.

Table of predicted overpasses for the next 14.0 days since TLE Epoch: 7/4/2020
Interval Starting Time Ending Time Minimum Distance Time Minimum Distance (km)
1 07/05/2020 15:00:50 07/05/2020 15:01:14 07/05/2020 15:01:02 57.41
2 07/06/2020 14:42:00 07/06/2020 14:42:25 07/06/2020 14:42:13 51.60
3 07/07/2020 07:43:42 07/07/2020 07:44:03 07/07/2020 07:43:52 68.53
4 07/08/2020 07:24:51 07/08/2020 07:25:18 07/08/2020 07:25:04 39.51
5 07/10/2020 15:07:18 07/10/2020 15:07:26 07/10/2020 15:07:22 95.32
6 07/11/2020 14:48:18 07/11/2020 14:48:47 07/11/2020 14:48:33 15.84
7 07/13/2020 07:31:09 07/13/2020 07:31:38 07/13/2020 07:31:23 3.21
8 07/16/2020 14:54:38 07/16/2020 14:55:07 07/16/2020 14:54:53 20.88
